Flag for Israel Weather past 2 weeks in Modi'in-Maccabim-Re'ut, Israel

Now
66 °F

Scattered clouds.


Feels Like: 66 °F
Forecast: 57 / 79 °F
Wind: 2 mph from North

Location: Ben Gurion International Airport


UV Index: 7 (High)

Visibility: N/A


Pressure: 29.98 "Hg

Humidity: 73%

Dew point: 57 °F

Location of Modi'in-Maccabim-Re'utLocation

Historic Weather in Modi'in-Maccabim-Re'ut

°F

Modi'in-Maccabim-Re'ut temperature yesterday

Maximum temperature yesterday: 79 °F (at 12:50 PM)
Minimum temperature yesterday: 66 °F (at 9:20 PM)
Average temperature yesterday: 72 °F

Past Weeks' High & Low Weather Summary

 TemperatureHumidityPressure
High93 °F (Apr 18, 5:20 PM)88% (Apr 8, 3:20 AM)30.09 "Hg (Apr 8, 3:20 AM)
Low52 °F (Apr 11, 6:20 AM)20% (Apr 6, 11:50 AM)29.80 "Hg (Apr 16, 2:50 AM)
Average70 °F57%29.94 "Hg
* Reported Apr 6 7:20 AM — Apr 21 7:20 AM, Modi'in-Maccabim-Re'ut, Weather by CustomWeather, © 2014

Note: Actual official high and low records may vary slightly from our data, if they occured in-between our weather recording intervals... More about our weather records

Advertising

Historic Weather Conditions — Data for Previous 24 hours

 ConditionsComfort  
Time TempWeatherWind HumidityBarometerVisibility
7:20 AM
Apr 21
64 °FPassing clouds.2 mph78%29.98 "HgN/A
6:50 AM63 °FPassing clouds.2 mph83%29.98 "HgN/A
6:20 AM61 °FPassing clouds.3 mph83%29.98 "HgN/A
5:50 AM61 °FPassing clouds.2 mph88%29.98 "HgN/A
5:20 AM63 °FPassing clouds.2 mph83%29.95 "HgN/A
4:50 AM64 °FPassing clouds.5 mph78%29.95 "HgN/A
4:20 AM63 °FPassing clouds.5 mph83%29.95 "HgN/A
3:50 AM63 °FPassing clouds.5 mph83%29.95 "HgN/A
3:20 AM64 °FPassing clouds.2 mph78%29.95 "HgN/A
2:50 AM64 °FPassing clouds.5 mph78%29.95 "HgN/A
2:20 AM63 °FPassing clouds.6 mph83%29.95 "HgN/A
1:50 AM64 °FPassing clouds.7 mph83%29.95 "HgN/A
1:20 AM64 °FPassing clouds.7 mph83%29.95 "HgN/A
12:50 AM66 °FPassing clouds.7 mph78%29.95 "HgN/A
11:50 PM
Apr 20
66 °FPassing clouds.6 mph78%29.98 "HgN/A
11:20 PM66 °FPassing clouds.5 mph78%29.95 "HgN/A
10:50 PM66 °FPassing clouds.3 mph78%29.95 "HgN/A
10:20 PM66 °FPassing clouds.3 mph78%29.95 "HgN/A
9:50 PM66 °FPassing clouds.5 mph78%29.95 "HgN/A
9:20 PM66 °FPassing clouds.8 mph78%29.95 "HgN/A
8:50 PM68 °FPassing clouds.9 mph73%29.95 "HgN/A
8:20 PM68 °FPassing clouds.9 mph78%29.95 "HgN/A
7:50 PM68 °FScattered clouds.9 mph78%29.92 "HgN/A
7:20 PM68 °FPassing clouds.10 mph78%29.92 "HgN/A
6:50 PM70 °FPassing clouds.13 mph73%29.92 "HgN/A
6:20 PM72 °FPassing clouds.10 mph69%29.92 "HgN/A
5:50 PM72 °FPassing clouds.13 mph69%29.89 "HgN/A
5:20 PM73 °FSunny.13 mph65%29.89 "Hg10 mi
4:50 PM75 °FSunny.12 mph61%29.89 "Hg10 mi
4:20 PM77 °FSunny.14 mph57%29.89 "Hg10 mi
3:50 PM77 °FSunny.13 mph57%29.89 "Hg10 mi
3:20 PM77 °FSunny.14 mph57%29.89 "Hg10 mi
2:50 PM77 °FSunny.16 mph61%29.89 "Hg10 mi
2:20 PM77 °FSunny.14 mph61%29.89 "Hg10 mi
1:50 PM77 °FSunny.13 mph61%29.89 "Hg10 mi
1:20 PM77 °FSunny.12 mph61%29.92 "Hg10 mi
12:50 PM79 °FSunny.9 mph58%29.92 "Hg10 mi
12:20 PM77 °FSunny.8 mph65%29.92 "Hg10 mi
11:50 AM73 °FSunny.9 mph69%29.92 "Hg10 mi
11:20 AM77 °FSunny.7 mph61%29.92 "Hg10 mi
10:50 AM75 °FPassing clouds.8 mph69%29.92 "HgN/A
10:20 AM73 °FSunny.10 mph69%29.89 "Hg10 mi
9:50 AM73 °FPassing clouds.7 mph69%29.89 "HgN/A
9:20 AM73 °FPassing clouds.9 mph69%29.89 "HgN/A
8:50 AM73 °FPassing clouds.5 mph65%29.89 "HgN/A
8:20 AM72 °FPassing clouds.6 mph73%29.89 "HgN/A
Weather by CustomWeather, © 2014

See weather overview